UAL232 KDFW-KAUS

Flight info

Callsign UAL232
Flight time 0h 53m
Altitude 24000
Route JASPA7 WINDU SEWZY6
Aircraft B789/H-SDE1E2E3FGHIJ2J3J4J5M1RWXY/LB1D1

Departure

Time 2026-05-07 20:30
Airport Dallas Fort Worth International Airport (KDFW)

Arrival

Time 2026-05-07 21:23
Airport Austin Bergstrom International Airport (KAUS)
Time Latitude Longitude Altitude Speed Heading
2026-05-07 20:05 32.89461 -97.04226 603 ft 0 kts 34°
2026-05-07 20:19 32.89449 -97.04235 603 ft 4 kts 43°
2026-05-07 20:19 32.89434 -97.04259 603 ft 4 kts 72°
2026-05-07 20:19 32.89430 -97.04290 603 ft 4 kts 95°
2026-05-07 20:19 32.89434 -97.04321 603 ft 2 kts 93°
2026-05-07 20:20 32.89434 -97.04347 603 ft 4 kts 78°
2026-05-07 20:20 32.89426 -97.04362 603 ft 3 kts
2026-05-07 20:20 32.89405 -97.04364 603 ft 4 kts
2026-05-07 20:20 32.89377 -97.04368 603 ft 3 kts
2026-05-07 20:21 32.89374 -97.04368 603 ft 0 kts
2026-05-07 20:24 32.89375 -97.04368 603 ft 1 kts
2026-05-07 20:24 32.89389 -97.04371 603 ft 4 kts 348°
2026-05-07 20:25 32.89407 -97.04387 603 ft 3 kts 313°
2026-05-07 20:25 32.89417 -97.04412 603 ft 4 kts 288°
2026-05-07 20:25 32.89423 -97.04454 603 ft 8 kts 277°
2026-05-07 20:25 32.89424 -97.04539 603 ft 12 kts 268°
2026-05-07 20:26 32.89419 -97.04654 603 ft 15 kts 264°
2026-05-07 20:26 32.89400 -97.04797 600 ft 19 kts 263°
2026-05-07 20:26 32.89332 -97.04888 601 ft 16 kts 187°
2026-05-07 20:26 32.89203 -97.04887 598 ft 21 kts 179°
2026-05-07 20:27 32.89050 -97.04889 596 ft 23 kts 181°
2026-05-07 20:27 32.88881 -97.04889 594 ft 26 kts 179°
2026-05-07 20:27 32.88696 -97.04886 593 ft 27 kts 179°
2026-05-07 20:27 32.88504 -97.04885 595 ft 28 kts 180°
2026-05-07 20:28 32.88305 -97.04891 594 ft 29 kts 181°
2026-05-07 20:28 32.88103 -97.04889 595 ft 30 kts 178°
2026-05-07 20:28 32.87911 -97.04906 591 ft 19 kts 213°
2026-05-07 20:28 32.87901 -97.05031 591 ft 16 kts 288°
2026-05-07 20:29 32.87978 -97.05088 594 ft 12 kts 355°
2026-05-07 20:29 32.87992 -97.05089 594 ft 0 kts 359°
2026-05-07 20:29 32.88085 -97.05090 596 ft 50 kts
2026-05-07 20:29 32.88747 -97.05087 592 ft 138 kts
2026-05-07 20:30 32.89854 -97.05084 1085 ft 172 kts
2026-05-07 20:30 32.91148 -97.05111 1852 ft 204 kts 359°
2026-05-07 20:30 32.92664 -97.05195 2825 ft 231 kts 358°
2026-05-07 20:30 32.94329 -97.05437 3747 ft 258 kts 344°
2026-05-07 20:31 32.96082 -97.06157 4835 ft 270 kts 340°
2026-05-07 20:31 32.97859 -97.06870 6163 ft 273 kts 337°
2026-05-07 20:31 32.99471 -97.08083 7166 ft 276 kts 312°
2026-05-07 20:31 33.00564 -97.09935 8418 ft 274 kts 290°
2026-05-07 20:32 33.00948 -97.12139 9686 ft 273 kts 269°
2026-05-07 20:32 33.00853 -97.14407 10815 ft 275 kts 266°
2026-05-07 20:32 33.00711 -97.16682 12023 ft 276 kts 264°
2026-05-07 20:32 33.00470 -97.18932 13160 ft 278 kts 263°
2026-05-07 20:33 33.00245 -97.21221 14297 ft 279 kts 262°
2026-05-07 20:33 32.99686 -97.23448 15274 ft 284 kts 248°
2026-05-07 20:33 32.98620 -97.25467 16276 ft 292 kts 234°
2026-05-07 20:33 32.97165 -97.27199 17281 ft 300 kts 225°
2026-05-07 20:34 32.95341 -97.28502 18298 ft 312 kts 210°
2026-05-07 20:34 32.93227 -97.29195 19172 ft 327 kts 194°
2026-05-07 20:34 32.90915 -97.29209 20062 ft 334 kts 186°
2026-05-07 20:34 32.88592 -97.29090 20971 ft 334 kts 187°
2026-05-07 20:35 32.86266 -97.28954 21825 ft 337 kts 187°
2026-05-07 20:35 32.83857 -97.28817 22087 ft 357 kts 187°
2026-05-07 20:35 32.81326 -97.28670 22093 ft 365 kts 187°
2026-05-07 20:35 32.78782 -97.28447 22089 ft 369 kts 180°
2026-05-07 20:36 32.76288 -97.27680 22090 ft 383 kts 168°
2026-05-07 20:36 32.73797 -97.26535 22088 ft 384 kts 168°
2026-05-07 20:36 32.71302 -97.25393 22089 ft 384 kts 168°
2026-05-07 20:36 32.68802 -97.24248 22065 ft 383 kts 168°
2026-05-07 20:37 32.66309 -97.23109 22055 ft 383 kts 168°
2026-05-07 20:37 32.63823 -97.21972 22088 ft 383 kts 168°
2026-05-07 20:37 32.61338 -97.20838 22089 ft 383 kts 168°
2026-05-07 20:37 32.58853 -97.19702 22092 ft 383 kts 168°
2026-05-07 20:38 32.56360 -97.18564 22092 ft 383 kts 168°
2026-05-07 20:38 32.53898 -97.17443 22093 ft 384 kts 168°
2026-05-07 20:38 32.51399 -97.16304 22090 ft 384 kts 168°
2026-05-07 20:38 32.48899 -97.15165 22088 ft 384 kts 168°
2026-05-07 20:39 32.46407 -97.14030 22091 ft 383 kts 168°
2026-05-07 20:39 32.43911 -97.12894 22098 ft 383 kts 168°
2026-05-07 20:39 32.41423 -97.11764 22077 ft 383 kts 168°
2026-05-07 20:39 32.38968 -97.10648 22094 ft 382 kts 168°
2026-05-07 20:40 32.36474 -97.09515 22092 ft 382 kts 168°
2026-05-07 20:40 32.33982 -97.08385 22088 ft 383 kts 168°
2026-05-07 20:40 32.31492 -97.07255 22092 ft 383 kts 168°
2026-05-07 20:40 32.28974 -97.06284 22101 ft 373 kts 178°
2026-05-07 20:41 32.26436 -97.05972 22112 ft 361 kts 190°
2026-05-07 20:41 32.23958 -97.06044 22102 ft 361 kts 190°
2026-05-07 20:41 32.21452 -97.06118 22104 ft 361 kts 191°
2026-05-07 20:41 32.18941 -97.06197 22111 ft 360 kts 191°
2026-05-07 20:42 32.16430 -97.06280 22109 ft 359 kts 191°
2026-05-07 20:42 32.13961 -97.06360 22091 ft 360 kts 190°
2026-05-07 20:42 32.11435 -97.06438 22103 ft 363 kts 190°
2026-05-07 20:42 32.08902 -97.06513 22104 ft 362 kts 190°
2026-05-07 20:43 32.06377 -97.06592 22105 ft 362 kts 190°
2026-05-07 20:43 32.03870 -97.06672 22106 ft 362 kts 190°
2026-05-07 20:43 32.01340 -97.06751 22107 ft 362 kts 190°
2026-05-07 20:43 31.98819 -97.06829 22105 ft 362 kts 190°
2026-05-07 20:44 31.96301 -97.06908 22101 ft 362 kts 190°
2026-05-07 20:44 31.93786 -97.06987 22100 ft 361 kts 190°
2026-05-07 20:44 31.91294 -97.07065 22099 ft 361 kts 190°
2026-05-07 20:44 31.88763 -97.07143 22098 ft 361 kts 190°
2026-05-07 20:45 31.86274 -97.07221 22099 ft 360 kts 189°
2026-05-07 20:45 31.83773 -97.07298 22096 ft 359 kts 189°
2026-05-07 20:45 31.81266 -97.07376 22095 ft 358 kts 189°
2026-05-07 20:45 31.78804 -97.07454 22091 ft 358 kts 189°
2026-05-07 20:46 31.76307 -97.07531 22093 ft 358 kts 189°
2026-05-07 20:46 31.73807 -97.07608 22093 ft 359 kts 189°
2026-05-07 20:46 31.71297 -97.07687 22096 ft 360 kts 189°
2026-05-07 20:46 31.68791 -97.07765 22097 ft 360 kts 189°
2026-05-07 20:47 31.66288 -97.07842 22095 ft 359 kts 189°
2026-05-07 20:47 31.63786 -97.07920 22116 ft 359 kts 189°
2026-05-07 20:47 31.61314 -97.07997 22116 ft 359 kts 189°
2026-05-07 20:47 31.58805 -97.08074 22123 ft 355 kts 189°
2026-05-07 20:48 31.56362 -97.08146 22117 ft 348 kts 189°
2026-05-07 20:48 31.53974 -97.08242 22110 ft 344 kts 193°
2026-05-07 20:48 31.51657 -97.08801 22123 ft 337 kts 205°
2026-05-07 20:48 31.49427 -97.09674 22121 ft 337 kts 205°
2026-05-07 20:49 31.47220 -97.10537 22118 ft 337 kts 205°
2026-05-07 20:49 31.44990 -97.11411 22122 ft 336 kts 205°
2026-05-07 20:49 31.42771 -97.12281 22124 ft 336 kts 205°
2026-05-07 20:49 31.40553 -97.13149 22122 ft 336 kts 205°
2026-05-07 20:50 31.38330 -97.14018 22119 ft 337 kts 205°
2026-05-07 20:50 31.36125 -97.14881 22121 ft 337 kts 205°
2026-05-07 20:50 31.33896 -97.15752 22122 ft 337 kts 205°
2026-05-07 20:50 31.31665 -97.16623 22100 ft 336 kts 205°
2026-05-07 20:51 31.29476 -97.17477 22109 ft 335 kts 205°
2026-05-07 20:51 31.27258 -97.18343 22114 ft 335 kts 205°
2026-05-07 20:51 31.25045 -97.19206 22114 ft 335 kts 205°
2026-05-07 20:51 31.22828 -97.20070 22116 ft 335 kts 205°
2026-05-07 20:52 31.20642 -97.20923 22117 ft 335 kts 205°
2026-05-07 20:52 31.18426 -97.21787 22118 ft 335 kts 205°
2026-05-07 20:52 31.16219 -97.22647 22119 ft 334 kts 205°
2026-05-07 20:52 31.14007 -97.23509 22122 ft 335 kts 205°
2026-05-07 20:53 31.11792 -97.24372 22121 ft 335 kts 205°
2026-05-07 20:53 31.09592 -97.25225 21802 ft 332 kts 205°
2026-05-07 20:53 31.07416 -97.26073 21230 ft 334 kts 205°
2026-05-07 20:53 31.05195 -97.26940 20597 ft 337 kts 205°
2026-05-07 20:54 31.02949 -97.27814 19849 ft 343 kts 205°
2026-05-07 20:54 31.00662 -97.28699 19144 ft 348 kts 204°
2026-05-07 20:54 30.98346 -97.29598 18458 ft 352 kts 204°
2026-05-07 20:54 30.96041 -97.30493 17696 ft 355 kts 204°
2026-05-07 20:55 30.93682 -97.31408 16921 ft 358 kts 204°
2026-05-07 20:55 30.91314 -97.32325 16181 ft 359 kts 204°
2026-05-07 20:55 30.88942 -97.33253 15449 ft 359 kts 204°
2026-05-07 20:55 30.86573 -97.34185 14749 ft 358 kts 204°
2026-05-07 20:56 30.84206 -97.35112 14049 ft 358 kts 203°
2026-05-07 20:56 30.81872 -97.36022 13297 ft 355 kts 204°
2026-05-07 20:56 30.79648 -97.37206 12538 ft 350 kts 211°
2026-05-07 20:56 30.77460 -97.38458 11786 ft 348 kts 210°
2026-05-07 20:57 30.75305 -97.39674 11065 ft 347 kts 209°
2026-05-07 20:57 30.73134 -97.40905 10328 ft 344 kts 210°
2026-05-07 20:57 30.70982 -97.42137 9586 ft 342 kts 210°
2026-05-07 20:57 30.68874 -97.43344 8827 ft 341 kts 209°
2026-05-07 20:58 30.66739 -97.44558 8192 ft 336 kts 207°
2026-05-07 20:58 30.64613 -97.45517 8053 ft 316 kts 202°
2026-05-07 20:58 30.62611 -97.46426 7603 ft 309 kts 203°
2026-05-07 20:58 30.60632 -97.47356 7152 ft 303 kts 202°
2026-05-07 20:59 30.59336 -97.47944 6866 ft 299 kts 201°
2026-05-07 20:59 30.56777 -97.49078 6264 ft 293 kts 200°
2026-05-07 20:59 30.54899 -97.49914 6093 ft 279 kts 200°
2026-05-07 20:59 30.53729 -97.50441 6086 ft 266 kts 200°
2026-05-07 21:00 30.52063 -97.51189 6064 ft 247 kts 200°
2026-05-07 21:00 30.50510 -97.51886 6080 ft 233 kts 200°
2026-05-07 21:00 30.49016 -97.52555 6080 ft 228 kts 200°
2026-05-07 21:00 30.47547 -97.53210 6078 ft 227 kts 200°
2026-05-07 21:01 30.46085 -97.53864 6080 ft 228 kts 200°
2026-05-07 21:01 30.44598 -97.54531 6081 ft 228 kts 200°
2026-05-07 21:01 30.43113 -97.55195 6086 ft 228 kts 200°
2026-05-07 21:01 30.41648 -97.55849 5885 ft 227 kts 200°
2026-05-07 21:02 30.40160 -97.56513 5589 ft 229 kts 200°
2026-05-07 21:02 30.38632 -97.56916 5287 ft 228 kts 177°
2026-05-07 21:02 30.37044 -97.56845 5081 ft 227 kts 180°
2026-05-07 21:02 30.35478 -97.56883 5088 ft 226 kts 180°
2026-05-07 21:03 30.33889 -97.56887 5087 ft 232 kts 179°
2026-05-07 21:03 30.32250 -97.56894 5091 ft 237 kts 179°
2026-05-07 21:03 30.30620 -97.56900 5098 ft 239 kts 179°
2026-05-07 21:03 30.28947 -97.56902 5085 ft 239 kts 179°
2026-05-07 21:04 30.27283 -97.56832 5076 ft 239 kts 173°
2026-05-07 21:04 30.25612 -97.56770 5074 ft 241 kts 180°
2026-05-07 21:04 30.23940 -97.56800 5074 ft 240 kts 179°
2026-05-07 21:04 30.22289 -97.56771 5072 ft 239 kts 177°
2026-05-07 21:05 30.20625 -97.56712 5063 ft 237 kts 178°
2026-05-07 21:05 30.18994 -97.56665 4947 ft 235 kts 178°
2026-05-07 21:05 30.17356 -97.56632 4645 ft 235 kts 178°
2026-05-07 21:05 30.15727 -97.56605 4316 ft 233 kts 178°
2026-05-07 21:06 30.14109 -97.56575 4001 ft 233 kts 176°
2026-05-07 21:06 30.12493 -97.56538 3681 ft 231 kts 175°
2026-05-07 21:06 30.10901 -97.56504 3362 ft 231 kts 176°
2026-05-07 21:06 30.09293 -97.56475 3041 ft 225 kts 174°
2026-05-07 21:07 30.07807 -97.56449 2765 ft 202 kts 175°
2026-05-07 21:07 30.06461 -97.56477 2563 ft 183 kts 182°
2026-05-07 21:07 30.05421 -97.57209 2209 ft 178 kts 230°
2026-05-07 21:07 30.04884 -97.58411 2120 ft 171 kts 256°
2026-05-07 21:08 30.04939 -97.59753 2018 ft 160 kts 290°
2026-05-07 21:08 30.05445 -97.60831 2056 ft 156 kts 311°
2026-05-07 21:08 30.06126 -97.61844 2080 ft 160 kts 311°
2026-05-07 21:08 30.06765 -97.62884 2078 ft 159 kts 309°
2026-05-07 21:09 30.07395 -97.63926 2073 ft 160 kts 312°
2026-05-07 21:09 30.08046 -97.64976 2077 ft 161 kts 311°
2026-05-07 21:09 30.08679 -97.66031 2071 ft 158 kts 312°
2026-05-07 21:09 30.09343 -97.67069 2071 ft 160 kts 316°
2026-05-07 21:10 30.10272 -97.67578 2000 ft 144 kts
2026-05-07 21:10 30.11276 -97.67461 2041 ft 153 kts 359°
2026-05-07 21:10 30.12240 -97.67942 2062 ft 147 kts 342°
2026-05-07 21:10 30.13197 -97.67883 1991 ft 139 kts 28°
2026-05-07 21:11 30.14101 -97.67683 1784 ft 125 kts 359°
2026-05-07 21:11 30.14944 -97.67745 1643 ft 124 kts
2026-05-07 21:11 30.16766 -97.67823 2667 ft 138 kts
2026-05-07 21:12 30.17781 -97.67833 3100 ft 151 kts
2026-05-07 21:12 30.18864 -97.67879 3323 ft 164 kts
2026-05-07 21:12 30.20006 -97.67895 3275 ft 162 kts
2026-05-07 21:12 30.21052 -97.68400 3034 ft 177 kts 320°
2026-05-07 21:13 30.21440 -97.69741 2772 ft 185 kts 268°
2026-05-07 21:13 30.20822 -97.71013 2519 ft 186 kts 216°
2026-05-07 21:13 30.19690 -97.71669 2419 ft 177 kts 197°
2026-05-07 21:13 30.18551 -97.72221 2322 ft 182 kts 204°
2026-05-07 21:14 30.17574 -97.73136 2163 ft 182 kts 229°
2026-05-07 21:14 30.16864 -97.74350 2082 ft 181 kts 240°
2026-05-07 21:14 30.16218 -97.75562 2078 ft 181 kts 239°
2026-05-07 21:14 30.15502 -97.76822 2072 ft 184 kts 238°
2026-05-07 21:15 30.14811 -97.78011 2069 ft 179 kts 237°
2026-05-07 21:15 30.14106 -97.79238 2075 ft 182 kts 238°
2026-05-07 21:15 30.13425 -97.80420 2068 ft 178 kts 238°
2026-05-07 21:15 30.12727 -97.81648 2070 ft 181 kts 239°
2026-05-07 21:16 30.12091 -97.82877 2074 ft 179 kts 239°
2026-05-07 21:16 30.11407 -97.84097 2073 ft 179 kts 237°
2026-05-07 21:16 30.10707 -97.85285 2075 ft 180 kts 236°
2026-05-07 21:16 30.09865 -97.86339 1988 ft 177 kts 208°
2026-05-07 21:17 30.08664 -97.86396 1914 ft 178 kts 153°
2026-05-07 21:17 30.07823 -97.85475 1950 ft 160 kts 112°
2026-05-07 21:17 30.07767 -97.84245 2009 ft 156 kts 77°
2026-05-07 21:17 30.07958 -97.83019 2084 ft 154 kts 77°
2026-05-07 21:18 30.08104 -97.81841 2062 ft 144 kts 80°
2026-05-07 21:18 30.08227 -97.80700 2057 ft 141 kts 80°
2026-05-07 21:18 30.08346 -97.79585 2057 ft 139 kts 80°
2026-05-07 21:18 30.08470 -97.78475 2055 ft 139 kts 80°
2026-05-07 21:19 30.08585 -97.77403 2054 ft 135 kts 79°
2026-05-07 21:19 30.08711 -97.76300 2066 ft 139 kts 78°
2026-05-07 21:19 30.08838 -97.75189 2061 ft 140 kts 81°
2026-05-07 21:19 30.08955 -97.74076 2053 ft 137 kts 79°
2026-05-07 21:20 30.09074 -97.72990 2052 ft 137 kts 77°
2026-05-07 21:20 30.09201 -97.71883 2059 ft 140 kts 79°
2026-05-07 21:20 30.09324 -97.70781 2054 ft 139 kts 81°
2026-05-07 21:20 30.09433 -97.69637 2057 ft 145 kts 82°
2026-05-07 21:21 30.09688 -97.68567 2015 ft 137 kts 57°
2026-05-07 21:21 30.10381 -97.67871 1978 ft 137 kts 25°
2026-05-07 21:21 30.11342 -97.67837 1819 ft 136 kts 358°
2026-05-07 21:21 30.12278 -97.67763 1647 ft 132 kts
2026-05-07 21:22 30.13199 -97.67748 1470 ft 136 kts
2026-05-07 21:22 30.14153 -97.67757 1294 ft 135 kts 359°
2026-05-07 21:22 30.15087 -97.67774 1102 ft 134 kts
2026-05-07 21:22 30.16013 -97.67801 943 ft 129 kts
2026-05-07 21:23 30.16909 -97.67816 754 ft 132 kts
2026-05-07 21:23 30.17827 -97.67852 580 ft 129 kts
2026-05-07 21:23 30.18653 -97.67864 508 ft 85 kts 354°
2026-05-07 21:23 30.18975 -97.67871 512 ft 21 kts 360°
2026-05-07 21:24 30.19104 -97.67873 511 ft 24 kts 359°
2026-05-07 21:24 30.19322 -97.67877 512 ft 29 kts
2026-05-07 21:24 30.19394 -97.67752 510 ft 19 kts 87°
2026-05-07 21:24 30.19396 -97.67603 511 ft 18 kts 89°
2026-05-07 21:25 30.19400 -97.67458 511 ft 18 kts 86°
2026-05-07 21:25 30.19445 -97.67336 508 ft 17 kts 27°
2026-05-07 21:25 30.19560 -97.67323 507 ft 17 kts 359°
2026-05-07 21:25 30.19683 -97.67325 507 ft 19 kts 359°
2026-05-07 21:26 30.19826 -97.67329 507 ft 22 kts 358°
2026-05-07 21:26 30.19989 -97.67336 507 ft 25 kts 359°
2026-05-07 21:26 30.20099 -97.67238 507 ft 20 kts 62°
2026-05-07 21:26 30.20144 -97.67149 507 ft 0 kts 58°
2026-05-07 21:27 30.20150 -97.67137 507 ft 3 kts 58°
2026-05-07 21:27 30.20155 -97.67128 507 ft 1 kts 57°
2026-05-07 21:27 30.20156 -97.67128 507 ft 0 kts 57°
2026-05-07 21:28 30.20165 -97.67110 507 ft 0 kts 59°
2026-05-07 21:28 30.13859 -97.67663 1353 ft 145 kts 284°
2026-05-07 21:28 30.14144 -97.67673 1296 ft 136 kts 351°
2026-05-07 21:29 30.15580 -97.67786 1028 ft 133 kts
2026-05-07 21:29 30.16466 -97.67811 842 ft 129 kts
2026-05-07 21:29 30.17300 -97.67873 557 ft 35 kts 305°
2026-05-07 21:29 30.17331 -97.67850 488 ft 0 kts 306°